Preview of NWS' New Version of Forecast
This preview is not operational and should not be used for support decisions.

Regional Weather Roundup (RWR)

Issued by National Weather Service (NWS)

                            
000
ASUS43 KDTX 190010
RWRMI 
MICHIGAN HOURLY REGIONAL WEATHER ROUNDUP
NATIONAL WEATHER SERVICE DETROIT/PONTIAC MI
800 PM EDT THU APR 18 2019

NOTE: "FAIR" INDICATES FEW OR NO CLOUDS BELOW 12,000 FEET WITH NO
SIGNIFICANT WEATHER AND/OR OBSTRUCTION TO VISIBILITY.

MIZ047>049-052>055-059>063-066>070-074>076-081>083-190100-
SOUTHEAST LOWER MICHIGAN
  
CITY           SKY/WX    TMP DP  RH WIND       PRES   REMARKS
ADRIAN         LGT RAIN  54  51  90 NW6       29.64R                  
6HR MIN TEMP:  54; 6HR MAX TEMP:  66; 6HR PCP:  0.16;                

ALMA           CLOUDY    48  44  86 W12       29.66R                  
6HR MIN TEMP:  48; 6HR MAX TEMP:  60;                                

ANN ARBOR      LGT RAIN  54  53  97 W9        29.61R FOG              
BAD AXE        CLOUDY    48  46  95 CALM      29.59R                  
6HR MIN TEMP:  47; 6HR MAX TEMP:  63;                                

CARO           DRIZZLE   54  51  92 SW7       29.60R                  
DETROIT CITY   LGT RAIN  60  56  86 W9        29.61R                  
6HR MIN TEMP:  60; 6HR MAX TEMP:  70; 6HR PCP:  0.01;                

DETROIT        LGT RAIN  58  54  86 W13       29.62R FOG              
6HR MIN TEMP:  58; 6HR MAX TEMP:  70; 6HR PCP:  0.08;                

FLINT          LGT RAIN  53  50  89 W9        29.63R                  
6HR MIN TEMP:  53; 6HR MAX TEMP:  66; 6HR PCP:  0.45;                

GROSSE ILE     CLOUDY    60  56  84 W10G17    29.60R                  
6HR MIN TEMP:  57; 6HR MAX TEMP:  70;                                

HILLSDALE      LGT RAIN  51  48  89 NW14      29.64R                  
6HR MIN TEMP:  51; 6HR MAX TEMP:  65; 6HR PCP:  0.10;                

HOWELL         CLOUDY    53  49  86 W8        29.63R                  
6HR MIN TEMP:  53; 6HR MAX TEMP:  65; 6HR PCP:  0.16;                


CITY           SKY/WX    TMP DP  RH WIND       PRES   REMARKS
JACKSON        CLOUDY    50  48  93 W8        29.65R                  
6HR MIN TEMP:  50; 6HR MAX TEMP:  67; 6HR PCP:  0.20;                

LAMBERTVILLE   LGT RAIN  58  55  89 W6        29.62R                  
6HR MIN TEMP:  58; 6HR MAX TEMP:  72;                                

LANSING        CLOUDY    48  44  86 W14       29.66R                  
6HR MIN TEMP:  49; 6HR MAX TEMP:  63; 6HR PCP:  0.21;                

LAPEER         DRIZZLE   55  53  94 W7        29.62R                  
6HR MIN TEMP:  55; 6HR MAX TEMP:  67; 6HR PCP:  0.20;                

MASON          CLOUDY    51  48  89 W14       29.66R                  
6HR MIN TEMP:  51; 6HR MAX TEMP:  64;                                

MONROE         CLOUDY    60  59  97 W9        29.61R                  
6HR MIN TEMP:  60; 6HR MAX TEMP:  72;                                

MT. CLEMENS    LGT RAIN  59  59 100 W7        29.59R                  
6HR MIN TEMP:  59; 6HR MAX TEMP:  70; 6HR PCP:  0.02;                

PONTIAC        LGT RAIN  54  53  97 W12       29.61R                  
6HR MIN TEMP:  54; 6HR MAX TEMP:  65; 6HR PCP:  0.18;                

PORT HOPE        N/A     42  41  96 NW3       29.57R                  
6HR MIN TEMP:  41; 6HR MAX TEMP:  64; 6HR PCP:  0.45;                

PORT HURON     RAIN      59  55  88 W6        29.60R                  
TRI CITIES     LGT RAIN  50  48  93 W14       29.62R                  
6HR MIN TEMP:  50; 6HR MAX TEMP:  60; 6HR PCP:  0.19;                

MIDLAND        CLOUDY    49  45  87 W13G18    29.62R                  
6HR MIN TEMP:  49; 6HR MAX TEMP:  60; 6HR PCP:  0.17;                

TROY           RAIN      58  53  84 W7        29.63R                  
SAGINAW HB     CLOUDY    54  50  87 W13G18    29.61R                  
$$
MIZ043>046-050>051-056>058-064>065-071>073-077>080-190100-
SOUTHWEST LOWER MICHIGAN
  
CITY           SKY/WX    TMP DP  RH WIND       PRES   REMARKS
BATTLE CREEK   CLOUDY    45  40  82 W9        29.69R                  
6HR MIN TEMP:  45; 6HR MAX TEMP:  63; 6HR PCP:  0.14;                

BENTON HARBOR  CLOUDY    41  37  86 VRB3      29.74R                  
6HR MIN TEMP:  40; 6HR MAX TEMP:  46; 6HR PCP:  0.06;                

BIG RAPIDS     CLOUDY    40  38  93 NW8       29.67R WCI  34          
6HR MIN TEMP:  40; 6HR MAX TEMP:  48; 6HR PCP:  0.05;                

COLDWATER      RAIN      49  47  96 NW13      29.67R                  
6HR MIN TEMP:  49; 6HR MAX TEMP:  66;                                

FREMONT        CLOUDY    41  39  94 NW14      29.70R                  
6HR MIN TEMP:  40; 6HR MAX TEMP:  46;                                

HOLLAND        CLOUDY    41  37  86 NW9G21    29.71S                  
6HR MIN TEMP:  41; 6HR MAX TEMP:  47; 6HR PCP:  0.06;                

GRAND RAPIDS   CLOUDY    43  39  86 NW12      29.69R                  
6HR MIN TEMP:  43; 6HR MAX TEMP:  53; 6HR PCP:  0.08;                

IONIA          CLOUDY    46  40  82 W14       29.67R                  
6HR MIN TEMP:  46; 6HR MAX TEMP:  56; 6HR PCP:  0.03;                

KALAMAZOO      CLOUDY    43  38  82 NW12      29.70R                  
6HR MIN TEMP:  43; 6HR MAX TEMP:  62; 6HR PCP:  0.06;                

LUDINGTON      CLOUDY    39  38  94 N13       29.72R WCI  32          
6HR MIN TEMP:  39; 6HR MAX TEMP:  40;                                

MARSHALL       DRIZZLE   46  46 100 NW7       29.68R                  
6HR MIN TEMP:  46; 6HR MAX TEMP:  64; 6HR PCP:  0.09;                

MOUNT PLEASANT CLOUDY    43  42  93 W10G18    29.65R                  
6HR MIN TEMP:  43; 6HR MAX TEMP:  56; 6HR PCP:  0.20;                

MUSKEGON       CLOUDY    42  36  79 NW9       29.73R                  
6HR MIN TEMP:  41; 6HR MAX TEMP:  47; 6HR PCP:  0.08;                

SOUTH HAVEN    CLOUDY    40  38  90 N9        29.73S WCI  34          
$$
MIZ016>042-190100-
NORTHERN LOWER MICHIGAN
  
CITY           SKY/WX    TMP DP  RH WIND       PRES   REMARKS
ALPENA         CLOUDY    43  41  93 NW8       29.60R                  
6HR MIN TEMP:  43; 6HR MAX TEMP:  51; 6HR PCP:  0.28;                

BEAVER ISLAND  CLOUDY    37  37 100 N7        29.68R FOG     WCI  31  
6HR MIN TEMP:  37; 6HR MAX TEMP:  39;                                

BELLAIRE       CLOUDY    39  37  93 CALM      29.67R FOG              
6HR MIN TEMP:  38; 6HR MAX TEMP:  41;                                

CADILLAC       CLOUDY    39  38  94 W6        29.64R FOG     WCI  35  
CHARLEVOIX     CLOUDY    37  36  95 NW9       29.70R FOG     WCI  31  
6HR MIN TEMP:  37; 6HR MAX TEMP:  39;                                

FRANKFORT      CLOUDY    41  37  86 N7        29.70R FOG              
GAYLORD        CLOUDY    37  37 100 W7        29.63R FOG     WCI  32  
6HR MIN TEMP:  37; 6HR MAX TEMP:  43; 6HR PCP:  0.07;                

GRAYLING       CLOUDY    37  37 100 W9        29.63R FOG     WCI  31  
6HR MIN TEMP:  38; 6HR MAX TEMP:  45; 6HR PCP:  0.14;                

HARBOR SPRINGS CLOUDY    36  35  96 CALM      29.65R FOG              
HOUGHTON LAKE  CLOUDY    39  37  92 W10       29.65R WCI  32          
6HR MIN TEMP:  39; 6HR MAX TEMP:  50; 6HR PCP:  0.07;                

MANISTEE       LGT RAIN  37  37 100 NW9G17    29.71R FOG     WCI  31  
OSCODA         LGT RAIN  41  41 100 CALM      29.59R                  
6HR MIN TEMP:  40; 6HR MAX TEMP:  59; 6HR PCP:  0.41;                

PELLSTON       CLOUDY    39  38  96 N9        29.64R FOG     WCI  33  
6HR MIN TEMP:  39; 6HR MAX TEMP:  43;                                

ROGERS CITY    RAIN      40  39  97 NW7       29.62R                  
TRAVERSE CITY  DRIZZLE   40  38  93 NW8       29.67R FOG     WCI  34  
6HR MIN TEMP:  40; 6HR MAX TEMP:  42; 6HR PCP:  0.01;                

$$
MIZ007>008-015-190100-
EASTERN UPPER MICHIGAN
  
CITY           SKY/WX    TMP DP  RH WIND       PRES   REMARKS
KINROSS        MIX PCPN  37  36  96 N10       29.65R FOG     WCI  30  
6HR MIN TEMP:  37; 6HR MAX TEMP:  40; 6HR PCP: TRACE;                

MACKINAC ISLAN MIX PCPN  37  37 100 N10       29.63R WCI  30          
6HR MIN TEMP:  37; 6HR MAX TEMP:  38;                                

NEWBERRY       CLOUDY    37  35  92 N10       29.67R FOG     WCI  29  
6HR MIN TEMP:  36; 6HR MAX TEMP:  37;                                

S. S. MARIE    CLOUDY    40  36  86 N6        29.64R                  
6HR MIN TEMP:  40; 6HR MAX TEMP:  44;                                

MUNISING         N/A     38  33  82 N14       29.74R WCI  30          
6HR MIN TEMP:  36; 6HR MAX TEMP:  38;                                

$$
MIZ004>006-011>014-085-190100-
CENTRAL UPPER MICHIGAN
  
CITY           SKY/WX    TMP DP  RH WIND       PRES   REMARKS
MANISTIQUE     CLOUDY    40  34  79 N13       29.69R WCI  33          
6HR MIN TEMP:  39; 6HR MAX TEMP:  40;                                

ESCANABA       LGT RAIN  39  36  87 N9G16     29.77R WCI  33          
6HR MIN TEMP:  40; 6HR MAX TEMP:  42; 6HR PCP: TRACE;                

MENOMINEE      LGT RAIN  41  39  93 NW7       29.79R                  
6HR MIN TEMP:  41; 6HR MAX TEMP:  44; 6HR PCP:  0.01;                

SAWYER-GWINN   LGT RAIN  39  36  87 N21G30    29.74R WCI  29          
$$
MIZ001>003-009>011-084-190100-
WESTERN UPPER MICHIGAN
  
CITY           SKY/WX    TMP DP  RH WIND       PRES   REMARKS
IRON MOUNTAIN  LGT RAIN  41  36  82 N13       29.78R                  
6HR MIN TEMP:  40; 6HR MAX TEMP:  41; 6HR PCP: TRACE;                

HOUGHTON       CLOUDY    42  33  70 N15G24    29.83R                  
6HR MIN TEMP:  41; 6HR MAX TEMP:  43;                                

COPPER HARBOR    N/A     37  34  89 NE10      29.83R WCI  30          
6HR MIN TEMP:  37; 6HR MAX TEMP:  38;                                

IRONWOOD       LGT RAIN  39  38  96 CALM      29.89R                  
6HR MIN TEMP:  37; 6HR MAX TEMP:  39;                                

$$

ABBREVIATIONS USED IN REMARKS
   TC - TEMPERATURE IN CELSIUS
  WCI - WIND CHILL INDEX
   HX - HEAT INDEX
  VSB - VISIBILITY